When you browse on this site, cookies collect data to enhance your experience and personalize the content and advertising you see.
Visit our Privacy Policy to learn more. By continuing to use the site, you agree to this use of cookies and data.
  • In Spain
  • List of Countries
  • For 7 days
  • Water Temperature
  • Weather Map
  • Weather Widgets
  • user-avatar
    Login

    Hourly Weather Ulsan

    Today, 31 May, Sunday

    Time Temperature Precipitation Wind Pressure Humidity
    00:00 +16°C° 0 mm 0 mps 752 mmHg 70%
    01:00 +18°C° 0 mm 1 mps 752 mmHg 70%
    02:00 +16°C° 0 mm 1 mps 751 mmHg 69%
    03:00 +16°C° 0 mm 1 mps 751 mmHg 68%
    04:00 +16°C° 0 mm 1 mps 751 mmHg 67%
    05:00 +18°C° 0 mm 1 mps 751 mmHg 66%
    06:00 +18°C° 0 mm 1 mps 751 mmHg 65%
    07:00 +18°C° 0.6 mm 1 mps 751 mmHg 72%
    08:00 +16°C° 0.6 mm 1 mps 751 mmHg 78%
    09:00 +16°C° 0.6 mm 1 mps 751 mmHg 85%
    10:00 +16°C° 0.1 mm 1 mps 751 mmHg 85%
    11:00 +18°C° 0.1 mm 1 mps 750 mmHg 86%
    12:00 +19°C° 0.1 mm 1 mps 750 mmHg 87%
    13:00 +19°C° 0.2 mm 1 mps 750 mmHg 89%
    14:00 +19°C° 0.2 mm 1 mps 750 mmHg 92%
    15:00 +17°C° 0.2 mm 0 mps 749 mmHg 94%
    16:00 +17°C° 0 mm 0 mps 749 mmHg 92%
    17:00 +20°C° 0 mm 1 mps 749 mmHg 90%
    18:00 +20°C° 0 mm 1 mps 749 mmHg 88%
    19:00 +20°C° 0 mm 1 mps 749 mmHg 90%
    20:00 +19°C° 0 mm 1 mps 749 mmHg 92%
    21:00 +19°C° 0 mm 1 mps 748 mmHg 94%
    22:00 +19°C° 0 mm 1 mps 749 mmHg 94%
    23:00 +18°C° 0 mm 1 mps 749 mmHg 94%

    Tomorrow, 1 June, Monday

    Time Temperature Precipitation Wind Pressure Humidity
    00:00 +17°C° 0 mm 2 mps 749 mmHg 95%
    01:00 +17°C° 0 mm 2 mps 749 mmHg 94%
    02:00 +18°C° 0 mm 1 mps 748 mmHg 94%
    03:00 +18°C° 0 mm 1 mps 748 mmHg 94%
    04:00 +18°C° 0 mm 1 mps 749 mmHg 93%
    05:00 +19°C° 0 mm 1 mps 749 mmHg 92%
    06:00 +19°C° 0 mm 1 mps 749 mmHg 91%
    07:00 +20°C° 0 mm 1 mps 749 mmHg 85%
    08:00 +22°C° 0 mm 1 mps 749 mmHg 78%
    09:00 +24°C° 0 mm 1 mps 749 mmHg 71%
    10:00 +25°C° 0 mm 2 mps 749 mmHg 66%
    11:00 +26°C° 0 mm 2 mps 749 mmHg 61%
    12:00 +27°C° 0 mm 3 mps 749 mmHg 56%
    13:00 +27°C° 0 mm 3 mps 749 mmHg 54%
    14:00 +27°C° 0 mm 3 mps 748 mmHg 53%
    15:00 +27°C° 0 mm 4 mps 748 mmHg 51%
    16:00 +27°C° 0 mm 3 mps 748 mmHg 56%
    17:00 +26°C° 0 mm 3 mps 748 mmHg 60%
    18:00 +25°C° 0 mm 3 mps 747 mmHg 65%
    19:00 +24°C° 0 mm 3 mps 748 mmHg 67%
    20:00 +21°C° 0 mm 2 mps 748 mmHg 70%
    21:00 +20°C° 0 mm 2 mps 748 mmHg 72%
    22:00 +19°C° 0 mm 2 mps 749 mmHg 69%
    23:00 +20°C° 0 mm 1 mps 749 mmHg 67%

    Day after tomorrow, 2 June, Tuesday

    Time Temperature Precipitation Wind Pressure Humidity
    00:00 +19°C° 0 mm 1 mps 749 mmHg 64%
    01:00 +19°C° 0 mm 1 mps 748 mmHg 63%
    02:00 +18°C° 0 mm 1 mps 748 mmHg 63%
    03:00 +18°C° 0 mm 1 mps 747 mmHg 63%
    04:00 +18°C° 0 mm 1 mps 747 mmHg 62%
    05:00 +18°C° 0 mm 1 mps 747 mmHg 61%
    06:00 +18°C° 0 mm 1 mps 747 mmHg 61%
    07:00 +20°C° 0 mm 1 mps 747 mmHg 55%
    08:00 +23°C° 0 mm 1 mps 747 mmHg 50%
    09:00 +25°C° 0 mm 2 mps 747 mmHg 44%
    10:00 +26°C° 0 mm 3 mps 747 mmHg 46%
    11:00 +26°C° 0 mm 5 mps 747 mmHg 48%
    12:00 +27°C° 0 mm 6 mps 747 mmHg 49%
    13:00 +27°C° 0 mm 6 mps 746 mmHg 52%
    14:00 +27°C° 0 mm 6 mps 746 mmHg 54%
    15:00 +27°C° 0 mm 6 mps 745 mmHg 56%
    16:00 +26°C° 0.1 mm 5 mps 745 mmHg 63%
    17:00 +23°C° 0.1 mm 5 mps 745 mmHg 70%
    18:00 +22°C° 0.1 mm 4 mps 744 mmHg 77%
    19:00 +21°C° 0 mm 3 mps 744 mmHg 82%
    20:00 +20°C° 0 mm 3 mps 745 mmHg 86%
    21:00 +19°C° 0 mm 3 mps 745 mmHg 91%
    22:00 +19°C° 0 mm 3 mps 745 mmHg 91%
    23:00 +19°C° 0 mm 3 mps 745 mmHg 92%

    3 June, Wednesday

    Time Temperature Precipitation Wind Pressure Humidity
    00:00 +18°C° 0 mm 3 mps 745 mmHg 93%
    01:00 +18°C° 0 mm 2 mps 745 mmHg 93%
    02:00 +18°C° 0 mm 2 mps 744 mmHg 93%
    03:00 +18°C° 0 mm 2 mps 744 mmHg 93%
    04:00 +18°C° 0 mm 2 mps 744 mmHg 93%
    05:00 +18°C° 0 mm 2 mps 744 mmHg 93%
    06:00 +19°C° 0 mm 2 mps 744 mmHg 93%
    07:00 +20°C° 0 mm 2 mps 744 mmHg 87%
    08:00 +23°C° 0 mm 2 mps 744 mmHg 81%
    09:00 +25°C° 0 mm 2 mps 744 mmHg 75%
    10:00 +26°C° 0 mm 3 mps 744 mmHg 70%
    11:00 +27°C° 0 mm 4 mps 743 mmHg 66%
    12:00 +28°C° 0 mm 4 mps 743 mmHg 61%
    13:00 +28°C° 0 mm 5 mps 743 mmHg 62%
    14:00 +28°C° 0 mm 5 mps 742 mmHg 62%
    15:00 +28°C° 0 mm 5 mps 742 mmHg 63%
    16:00 +27°C° 0 mm 5 mps 742 mmHg 67%
    17:00 +27°C° 0 mm 5 mps 741 mmHg 71%
    18:00 +26°C° 0 mm 5 mps 741 mmHg 76%
    19:00 +25°C° 0 mm 4 mps 741 mmHg 81%
    20:00 +23°C° 0 mm 4 mps 742 mmHg 86%
    21:00 +21°C° 0 mm 4 mps 742 mmHg 90%
    22:00 +21°C° 0 mm 4 mps 742 mmHg 92%
    23:00 +21°C° 0 mm 3 mps 742 mmHg 93%

    4 June, Thursday

    Time Temperature Precipitation Wind Pressure Humidity
    00:00 +20°C° 0 mm 3 mps 742 mmHg 94%
    01:00 +20°C° 0 mm 3 mps 742 mmHg 94%
    02:00 +20°C° 0 mm 3 mps 742 mmHg 94%
    03:00 +20°C° 0 mm 3 mps 742 mmHg 94%
    04:00 +20°C° 0 mm 3 mps 742 mmHg 93%
    05:00 +19°C° 0 mm 3 mps 742 mmHg 92%
    06:00 +19°C° 0 mm 3 mps 742 mmHg 91%
    07:00 +23°C° 0 mm 2 mps 742 mmHg 79%
    08:00 +25°C° 0 mm 2 mps 743 mmHg 68%
    09:00 +27°C° 0 mm 1 mps 743 mmHg 57%
    10:00 +28°C° 0 mm 2 mps 743 mmHg 49%
    11:00 +29°C° 0 mm 3 mps 743 mmHg 42%
    12:00 +31°C° 0 mm 3 mps 743 mmHg 34%
    13:00 +32°C° 0 mm 4 mps 742 mmHg 35%
    14:00 +32°C° 0 mm 4 mps 742 mmHg 35%
    15:00 +32°C° 0 mm 4 mps 742 mmHg 36%
    16:00 +30°C° 0 mm 4 mps 742 mmHg 42%
    17:00 +29°C° 0 mm 5 mps 742 mmHg 48%
    18:00 +28°C° 0 mm 5 mps 742 mmHg 54%
    19:00 +27°C° 0 mm 4 mps 742 mmHg 61%
    20:00 +25°C° 0 mm 4 mps 743 mmHg 68%
    21:00 +24°C° 0 mm 3 mps 743 mmHg 75%
    22:00 +22°C° 0 mm 3 mps 743 mmHg 79%
    23:00 +21°C° 0 mm 3 mps 743 mmHg 83%

    5 June, Friday

    Time Temperature Precipitation Wind Pressure Humidity
    00:00 +21°C° 0 mm 3 mps 744 mmHg 87%
    01:00 +21°C° 0 mm 2 mps 744 mmHg 88%
    02:00 +20°C° 0 mm 2 mps 744 mmHg 89%
    03:00 +20°C° 0 mm 2 mps 744 mmHg 90%
    04:00 +21°C° 0 mm 1 mps 744 mmHg 89%
    05:00 +21°C° 0 mm 1 mps 744 mmHg 88%
    06:00 +21°C° 0 mm 1 mps 744 mmHg 87%
    07:00 +23°C° 0 mm 1 mps 745 mmHg 78%
    08:00 +25°C° 0 mm 1 mps 745 mmHg 70%
    09:00 +26°C° 0 mm 1 mps 745 mmHg 61%
    10:00 +27°C° 0 mm 1 mps 745 mmHg 56%
    11:00 +29°C° 0 mm 2 mps 745 mmHg 52%
    12:00 +30°C° 0 mm 2 mps 745 mmHg 47%
    13:00 +29°C° 0 mm 3 mps 744 mmHg 50%
    14:00 +29°C° 0 mm 3 mps 744 mmHg 52%
    15:00 +28°C° 0 mm 3 mps 744 mmHg 54%
    16:00 +27°C° 0 mm 3 mps 744 mmHg 58%
    17:00 +27°C° 0 mm 3 mps 744 mmHg 61%
    18:00 +26°C° 0 mm 3 mps 744 mmHg 65%
    19:00 +24°C° 0.2 mm 3 mps 744 mmHg 70%
    20:00 +23°C° 0.2 mm 2 mps 744 mmHg 76%
    21:00 +20°C° 0.2 mm 2 mps 745 mmHg 81%
    22:00 +20°C° 0.2 mm 2 mps 745 mmHg 82%
    23:00 +20°C° 0.2 mm 2 mps 745 mmHg 83%
    Show more